Upton, NY (11973)

10:25 AM EDT on July 23, 2017 (GMT -0400)
Rolling Hills | | Change Station

Elev 120 ft 40.88 °N, 72.92 °W | Updated 5 seconds ago

Mostly Cloudy
Mostly Cloudy
73.7 °F
Feels Like 72 °F
N
0.0
Wind Variable Wind from North
Gusts 0.0 mph

Today
High -- | Low -- °F
--% Chance of Precip.
Yesterday
High -- | Low -- °F
Precip. -- in
Pressure 29.80 in
Visibility 10.0 miles
Clouds Few 1400 ft
Mostly Cloudy 10000 ft
Heat Index 72 °F
Dew Point 71 °F
Humidity 91%
Rainfall 0.05 in
Snow Depth Not available.
5:39 AM 8:15 PM
New Moon, 0% visible
METAR KHWV 231356Z AUTO 03006KT 10SM FEW014 BKN100 25/21 A2980 RMK AO2 SLP091 T02500211
Pressure 29.80 in
Visibility 10.0 miles
Clouds Few 1400 ft
Mostly Cloudy 10000 ft
Heat Index 72 °F
Dew Point 71 °F
Humidity 91%
Rainfall 0.05 in
Snow Depth Not available.
5:39 AM 8:15 PM
New Moon, 0% visible
METAR KHWV 231356Z AUTO 03006KT 10SM FEW014 BKN100 25/21 A2980 RMK AO2 SLP091 T02500211

Get Severe Weather Alerts

Thanks for signing up!

Be on the lookout for a verification email in your inbox.

You'll start receiving the daily forecast at 6 AM.

×

10-Day Weather Forecast

Almanac

Astronomy

Jul. 23, 2017 Rise Set
Actual Time
Civil Twilight
Nautical Twilight
Astronomical Twilight
Moon
Length of Visible Light
Length of Day
Tomorrow will be .
, % of the Moon is Illuminated

Today's Extremes

State Highs State Lows

Community

WunderPhotos

Category 6

Welcome to Category 6. This is the collective home for Weather Underground's featured writeups by Dr. Jeff Masters (right), Bob Henson (left), Chris Burt, and other regular contributors.

Nearby

Air Quality

  Air Quality AQ Index Pollutant
Not available.

Snow Depth

Station Depth Elevation

Earthquake Activity

City Distance Mag. Time & Date
Minimum magnitude displayed is 2.5.

Coastal Water Temperatures

Place Temperature

Stations

Nearby Weather Stations

Station Location Temp. Windchill Dew Point Humidity Wind Precip. Elev Updated Type
                   

Watches & Warnings

There are currently no watches in effect.